Franklin, PA

3:21 PM EST on November 17, 2019 (GMT -0500)
Venango Regional

Weather History for KFKL - September, 2019

Change the Weather History Date:

Sunday, September 8, 2019

  Actual Average Record
Temperature  
Mean Temperature 62 °F -  
Max Temperature 70 °F 76 °F 95 °F (1933)
Min Temperature 54 °F 52 °F 37 °F (1932)
Degree Days  
Heating Degree Days 3    
Growing Degree Days 12 (Base 50)    
Moisture  
Dew Point 54 °F    
Average Humidity 81    
Maximum Humidity 97    
Minimum Humidity 55    
Precipitation  
Precipitation 0.00 in - - ()
Sea Level Pressure  
Sea Level Pressure 30.11 in    
Wind  
Wind Speed 5 mph (NW)    
Max Wind Speed 8 mph    
Max Gust Speed -    
Visibility 10 miles    
Events      
Averages and records for this station are not official NWS values.
T = Trace of Precipitation, MM = Missing Value Source: NWS Daily Summary

Daily Weather History Graph

Daily Weather History Graph

Search for Another Location

Airport or City:

Astronomy

Sep. 08, 2019 Rise Set
Actual Time 6:52 AM EDT 7:41 PM EDT
Civil Twilight 6:24 AM EDT 8:09 PM EDT
Nautical Twilight 5:51 AM EDT 8:42 PM EDT
Astronomical Twilight 5:16 AM EDT 9:16 PM EDT
Moon 4:51 PM EDT (9/8) 1:27 AM EDT (9/8)
Length of Visible Light 13h 44m
Length of Day
12h 48m
Waxing Gibbous, 75% of the Moon is Illuminated
Sep 8
Waxing Gibbous
Sep 14
Full
Sep 21
Last Quarter
Sep 28
New
Oct 5
First Quarter

Hourly Weather History & Observations

Time (EDT) Temp. Dew Point Humidity Pressure Visibility Wind Dir Wind Speed Gust Speed Precip Events Conditions
12:56 AM 55.0 °F 53.1 °F 93% 30.02 in 10.0 mi SW 4.6 mph - N/A   Clear
1:56 AM 54.0 °F 53.1 °F 97% 30.02 in 9.0 mi SW 6.9 mph - N/A   Clear
2:56 AM 55.0 °F 54.0 °F 96% 30.02 in 10.0 mi SW 6.9 mph - N/A   Partly Cloudy
3:56 AM 57.0 °F 55.0 °F 93% 30.02 in 10.0 mi WNW 3.5 mph - N/A   Overcast
4:56 AM 57.0 °F 55.0 °F 93% 30.02 in 10.0 mi WSW 5.8 mph - N/A   Overcast
5:56 AM 57.0 °F 55.0 °F 93% 30.03 in 10.0 mi SW 5.8 mph - N/A   Overcast
6:56 AM 55.9 °F 55.0 °F 97% 30.07 in 10.0 mi WSW 3.5 mph - N/A   Mostly Cloudy
7:56 AM 57.0 °F 55.9 °F 96% 30.07 in 10.0 mi SW 3.5 mph - N/A   Scattered Clouds
8:53 AM 59.0 °F 55.4 °F 88% 30.09 in 10.0 mi West 4.6 mph - N/A   Partly Cloudy
8:56 AM 59.0 °F 57.0 °F 93% 30.10 in 10.0 mi West 5.8 mph - N/A   Scattered Clouds
9:56 AM 62.1 °F 57.9 °F 86% 30.11 in 10.0 mi NNE 5.8 mph - N/A   Overcast
10:18 AM 62.6 °F 57.2 °F 82% 30.11 in 10.0 mi NNE 5.8 mph - N/A   Overcast
10:56 AM 64.9 °F 57.9 °F 78% 30.11 in 10.0 mi Variable 3.5 mph - N/A   Mostly Cloudy
11:56 AM 66.0 °F 55.9 °F 70% 30.13 in 10.0 mi NW 6.9 mph - N/A   Mostly Cloudy
12:09 PM 66.2 °F 53.6 °F 64% 30.13 in 10.0 mi North 8.1 mph - N/A   Mostly Cloudy
12:56 PM 68.0 °F 55.9 °F 65% 30.12 in 10.0 mi NNE 4.6 mph - N/A   Scattered Clouds
1:56 PM 69.1 °F 54.0 °F 58% 30.12 in 10.0 mi Variable 3.5 mph - N/A   Scattered Clouds
2:56 PM 70.0 °F 53.1 °F 55% 30.12 in 10.0 mi WNW 6.9 mph - N/A   Partly Cloudy
3:56 PM 68.0 °F 53.1 °F 59% 30.12 in 10.0 mi West 6.9 mph - N/A   Clear
4:56 PM 66.9 °F 53.1 °F 61% 30.13 in 10.0 mi Variable 3.5 mph - N/A   Clear
5:56 PM 64.0 °F 53.1 °F 67% 30.15 in 10.0 mi North 3.5 mph - N/A   Clear
6:56 PM 62.1 °F 53.1 °F 72% 30.15 in 10.0 mi North 3.5 mph - N/A   Partly Cloudy
7:56 PM 60.1 °F 53.1 °F 78% 30.17 in 10.0 mi NNE 3.5 mph - N/A   Clear
8:56 PM 57.0 °F 53.1 °F 87% 30.19 in 10.0 mi North 4.6 mph - N/A   Clear
9:56 PM 55.9 °F 51.1 °F 84% 30.20 in 10.0 mi NE 4.6 mph - N/A   Clear
10:56 PM 54.0 °F 52.0 °F 93% 30.21 in 10.0 mi NNE 3.5 mph - N/A   Overcast
11:56 PM 54.0 °F 51.1 °F 90% 30.21 in 10.0 mi NE 4.6 mph - N/A   Clear